Simultaneous Nadir Overpasses (SNOs) Predictions

Prediction of SNOs between NOAA-15 and METOP-C Satellite Orbit:

Table of predicted SNOs for the next 14.0 days since TLE Epoch: 5/27/2023
Index Date (NOAA-15) Time (NOAA-15) Lat,Lon (NOAA-15) SZA (NOAA-15 ) Date (METOP-C) Time (METOP-C) Lat,Lon (METOP-C) SZA (METOP-C ) Distance(km) Time Diff (sec)
1 06/06/2023 04:41:27 -81.09, -32.08 119.49 06/06/2023 04:40:13 -81.08, -32.02 119.53 1.39 74
2 06/06/2023 05:31:53 81.08, 135.52 60.52 06/06/2023 05:30:53 81.09, 135.49 60.50 1.05 60
3 06/06/2023 06:22:28 -81.09, -57.33 119.50 06/06/2023 06:21:34 -81.09, -57.17 119.51 2.82 54
4 06/06/2023 07:12:55 81.10, 109.90 60.49 06/06/2023 07:12:15 81.08, 109.97 60.47 2.10 40
5 06/06/2023 08:03:29 -81.09, -82.59 119.51 06/06/2023 08:02:56 -81.08, -82.69 119.54 2.01 33
6 06/06/2023 08:53:56 81.10, 84.64 60.48 06/06/2023 08:53:36 81.09, 84.81 60.48 3.10 20
7 06/06/2023 09:44:30 -81.09,-107.84 119.52 06/06/2023 09:44:17 -81.09,-107.85 119.52 0.10 13
8 06/06/2023 10:34:56 81.08, 59.76 60.50 06/06/2023 10:34:57 81.10, 59.66 60.50 2.38 1
9 06/06/2023 11:25:31 -81.09,-133.10 119.53 06/06/2023 11:25:38 -81.10,-133.00 119.51 1.92 7
10 06/06/2023 12:15:58 81.10, 34.13 60.46 06/06/2023 12:16:19 81.09, 34.14 60.47 0.92 21
11 06/06/2023 13:06:32 -81.09,-158.36 119.53 06/06/2023 13:07:00 -81.09,-158.52 119.54 2.82 28
12 06/06/2023 13:56:59 81.10, 8.88 60.46 06/06/2023 13:57:40 81.10, 8.98 60.49 1.82 41
13 06/06/2023 14:47:33 -81.09, 176.39 119.54 06/06/2023 14:48:21 -81.10, 176.33 119.52 1.24 48
14 06/06/2023 15:38:00 81.10, -16.38 60.45 06/06/2023 15:39:02 81.09, -16.54 60.45 2.99 62



Historial Predications of SNOs between NOAA-15 and METOP-C
